| time (UTC) | temp C | wind direction | speed KPH | gust KPH | rain 1hr cm | rain 24hr cm | rain mn cm | humidity % | barometer mb |
| 20260506004549 | 22 | 337 | 1.6 | 14.5 | 0.00 | 0.00 | 0.00 | 69 | 1005.8 |
| 20260506004044 | 22 | 342 | 1.6 | 14.5 | 0.00 | 0.00 | 0.00 | 68 | 1005.5 |
| 20260506003549 | 22 | 38 | 3.2 | 14.5 | 0.00 | 0.00 | 0.00 | 68 | 1005.1 |
| 20260506003051 | 23 | 11 | 4.8 | 14.5 | 0.00 | 0.00 | 0.00 | 68 | 1005.3 |
| 20260506002544 | 23 | 11 | 1.6 | 11.3 | 0.00 | 0.00 | 0.00 | 68 | 1005.4 |
| 20260506002044 | 23 | 5 | 3.2 | 12.9 | 0.00 | 0.00 | 0.00 | 68 | 1005.1 |
| 20260506001554 | 23 | 333 | 3.2 | 12.9 | 0.00 | 0.00 | 0.00 | 67 | 1005.1 |
| 20260506001044 | 24 | 355 | 4.8 | 12.9 | 0.00 | 0.00 | 0.00 | 66 | 1005.2 |
| 20260506000548 | 25 | 31 | 3.2 | 9.7 | 0.00 | 0.00 | 0.00 | 66 | 1005.1 |
| 20260506000053 | 25 | 360 | 1.6 | 9.7 | 0.00 | 0.00 | 0.00 | 65 | 1005.0 |
| 20260505235548 | 25 | 17 | 1.6 | 9.7 | 0.00 | 0.00 | 0.00 | 65 | 1004.7 |
| 20260505235050 | 25 | 338 | 1.6 | 8.0 | 0.00 | 0.00 | 0.00 | 65 | 1004.9 |
| 20260505234552 | 26 | 351 | 1.6 | 6.4 | 0.00 | 0.00 | 0.00 | 64 | 1004.7 |
| 20260505234047 | 26 | 281 | 1.6 | 9.7 | 0.00 | 0.00 | 0.00 | 64 | 1004.6 |
| 20260505233547 | 26 | 325 | 1.6 | 11.3 | 0.00 | 0.00 | 0.00 | 64 | 1004.6 |
| 20260505233105 | 26 | 36 | 3.2 | 11.3 | 0.00 | 0.00 | 0.00 | 63 | 1004.5 |
| 20260505232550 | 26 | 344 | 1.6 | 11.3 | 0.00 | 0.00 | 0.00 | 63 | 1004.6 |
| 20260505232048 | 27 | 288 | 3.2 | 11.3 | 0.00 | 0.00 | 0.00 | 61 | 1004.9 |
| 20260505231551 | 27 | 329 | 1.6 | 11.3 | 0.00 | 0.00 | 0.00 | 60 | 1004.8 |
| 20260505231047 | 27 | 281 | 3.2 | 12.9 | 0.00 | 0.00 | 0.00 | 60 | 1004.5 |
| 20260505230544 | 27 | 0 | 3.2 | 12.9 | 0.00 | 0.00 | 0.00 | 60 | 1004.4 |
| 20260505230058 | 28 | 289 | 4.8 | 12.9 | 0.00 | 0.00 | 0.00 | 59 | 1004.5 |
| 20260505225546 | 28 | 300 | 3.2 | 12.9 | 0.00 | 0.00 | 0.00 | 59 | 1004.4 |
| 20260505225045 | 28 | 294 | 3.2 | 8.0 | 0.00 | 0.00 | 0.00 | 57 | 1004.2 |
| 20260505224554 | 29 | 0 | 1.6 | 12.9 | 0.00 | 0.00 | 0.00 | 57 | 1004.0 |
| 20260505224049 | 29 | 0 | 3.2 | 12.9 | 0.00 | 0.00 | 0.00 | 55 | 1004.0 |
| 20260505223544 | 29 | 0 | 3.2 | 12.9 | 0.00 | 0.00 | 0.00 | 54 | 1004.1 |
| 20260505223052 | 29 | 325 | 1.6 | 12.9 | 0.00 | 0.00 | 0.00 | 54 | 1004.3 |
| 20260505222544 | 29 | 329 | 3.2 | 8.0 | 0.00 | 0.00 | 0.00 | 53 | 1004.1 |
| 20260505222048 | 30 | 325 | 1.6 | 12.9 | 0.00 | 0.00 | 0.00 | 52 | 1003.9 |
| 20260505221555 | 30 | 299 | 1.6 | 12.9 | 0.00 | 0.00 | 0.00 | 52 | 1003.9 |
| 20260505221046 | 30 | 349 | 3.2 | 12.9 | 0.00 | 0.00 | 0.00 | 51 | 1003.8 |
| 20260505220544 | 31 | 15 | 3.2 | 16.1 | 0.00 | 0.00 | 0.00 | 50 | 1003.7 |
| 20260505220055 | 31 | 355 | 1.6 | 16.1 | 0.00 | 0.00 | 0.00 | 50 | 1003.6 |
| 20260505215547 | 32 | 287 | 3.2 | 12.9 | 0.00 | 0.00 | 0.00 | 48 | 1003.4 |
| 20260505215044 | 33 | 351 | 3.2 | 12.9 | 0.00 | 0.00 | 0.00 | 48 | 1003.6 |
| 20260505214604 | 33 | 292 | 1.6 | 11.3 | 0.00 | 0.00 | 0.00 | 45 | 1003.7 |
| 20260505214043 | 33 | 263 | 3.2 | 11.3 | 0.00 | 0.00 | 0.00 | 46 | 1003.7 |
| 20260505213543 | 33 | 236 | 1.6 | 12.9 | 0.00 | 0.00 | 0.00 | 44 | 1003.7 |
| 20260505213051 | 34 | 232 | 3.2 | 12.9 | 0.00 | 0.00 | 0.00 | 46 | 1003.5 |
| 20260505212548 | 34 | 307 | 3.2 | 12.9 | 0.00 | 0.00 | 0.00 | 47 | 1003.7 |
| 20260505212048 | 33 | 0 | 1.6 | 11.3 | 0.00 | 0.00 | 0.00 | 48 | 1003.7 |
| 20260505211549 | 33 | 281 | 1.6 | 11.3 | 0.00 | 0.00 | 0.00 | 48 | 1003.8 |
| 20260505211045 | 33 | 286 | 1.6 | 11.3 | 0.00 | 0.00 | 0.00 | 49 | 1004.0 |
| 20260505210547 | 33 | 246 | 1.6 | 6.4 | 0.00 | 0.00 | 0.00 | 50 | 1003.9 |
| 20260505210051 | 33 | 207 | 1.6 | 12.9 | 0.00 | 0.00 | 0.00 | 50 | 1004.0 |
| 20260505205547 | 33 | 281 | 3.2 | 12.9 | 0.00 | 0.00 | 0.00 | 50 | 1004.1 |
| 20260505205044 | 33 | 0 | 1.6 | 16.1 | 0.00 | 0.00 | 0.00 | 52 | 1004.0 |
| 20260505204618 | 33 | 282 | 4.8 | 16.1 | 0.00 | 0.00 | 0.00 | 51 | 1004.0 |
| 20260505204046 | 32 | 183 | 1.6 | 14.5 | 0.00 | 0.00 | 0.00 | 53 | 1004.3 |
| 20260505203547 | 32 | 0 | 3.2 | 14.5 | 0.00 | 0.00 | 0.00 | 53 | 1004.2 |
| 20260505203049 | 32 | 248 | 4.8 | 12.9 | 0.00 | 0.00 | 0.00 | 53 | 1004.3 |
| 20260505202550 | 32 | 245 | 1.6 | 14.5 | 0.00 | 0.00 | 0.00 | 53 | 1004.3 |
| 20260505202047 | 32 | 211 | 1.6 | 14.5 | 0.00 | 0.00 | 0.00 | 56 | 1004.4 |
| 20260505201557 | 32 | 269 | 3.2 | 14.5 | 0.00 | 0.00 | 0.00 | 54 | 1004.5 |
| 20260505201044 | 32 | 238 | 1.6 | 14.5 | 0.00 | 0.00 | 0.00 | 56 | 1004.4 |
| 20260505200544 | 32 | 248 | 4.8 | 14.5 | 0.00 | 0.00 | 0.00 | 55 | 1004.5 |
| 20260505200054 | 32 | 317 | 3.2 | 17.7 | 0.00 | 0.00 | 0.00 | 56 | 1004.6 |
| 20260505195546 | 32 | 0 | 3.2 | 17.7 | 0.00 | 0.00 | 0.00 | 57 | 1004.5 |
| 20260505195048 | 31 | 248 | 3.2 | 19.3 | 0.00 | 0.00 | 0.00 | 56 | 1004.5 |
| 20260505194552 | 31 | 306 | 6.4 | 19.3 | 0.00 | 0.00 | 0.00 | 57 | 1004.4 |
| 20260505194044 | 31 | 243 | 4.8 | 19.3 | 0.00 | 0.00 | 0.00 | 57 | 1004.5 |
| 20260505193548 | 31 | 244 | 4.8 | 19.3 | 0.00 | 0.00 | 0.00 | 57 | 1004.6 |
| 20260505193053 | 31 | 213 | 4.8 | 14.5 | 0.00 | 0.00 | 0.00 | 58 | 1004.6 |
| 20260505192547 | 31 | 296 | 3.2 | 17.7 | 0.00 | 0.00 | 0.00 | 58 | 1004.7 |
| 20260505192047 | 31 | 221 | 4.8 | 20.9 | 0.00 | 0.00 | 0.00 | 59 | 1004.5 |
| 20260505191603 | 30 | 240 | 6.4 | 20.9 | 0.00 | 0.00 | 0.00 | 59 | 1004.6 |
| 20260505191049 | 30 | 231 | 6.4 | 17.7 | 0.00 | 0.00 | 0.00 | 60 | 1004.7 |
| 20260505190550 | 30 | 65 | 1.6 | 14.5 | 0.00 | 0.00 | 0.00 | 62 | 1004.7 |
| 20260505190058 | 30 | 194 | 4.8 | 14.5 | 0.00 | 0.00 | 0.00 | 63 | 1004.6 |
| 20260505185547 | 30 | 273 | 4.8 | 16.1 | 0.00 | 0.00 | 0.00 | 64 | 1004.7 |
| 20260505185047 | 30 | 277 | 1.6 | 17.7 | 0.00 | 0.00 | 0.00 | 63 | 1004.7 |
| 20260505184551 | 29 | 229 | 3.2 | 17.7 | 0.00 | 0.00 | 0.00 | 63 | 1004.8 |
| 20260505184044 | 29 | 168 | 3.2 | 12.9 | 0.00 | 0.00 | 0.00 | 64 | 1004.9 |
| 20260505183544 | 29 | 240 | 1.6 | 12.9 | 0.00 | 0.00 | 0.00 | 64 | 1004.9 |
| 20260505183124 | 29 | 281 | 3.2 | 12.9 | 0.00 | 0.00 | 0.00 | 64 | 1004.8 |
| 20260505182544 | 29 | 240 | 3.2 | 12.9 | 0.00 | 0.00 | 0.00 | 65 | 1005.0 |
| 20260505182048 | 29 | 243 | 3.2 | 12.9 | 0.00 | 0.00 | 0.00 | 64 | 1005.0 |
| 20260505181553 | 28 | 161 | 1.6 | 14.5 | 0.00 | 0.00 | 0.00 | 66 | 1004.8 |
| 20260505181044 | 28 | 239 | 1.6 | 14.5 | 0.00 | 0.00 | 0.00 | 66 | 1005.0 |
| 20260505180543 | 28 | 239 | 4.8 | 16.1 | 0.00 | 0.00 | 0.00 | 67 | 1004.9 |
| 20260505180049 | 28 | 235 | 3.2 | 20.9 | 0.00 | 0.00 | 0.00 | 67 | 1004.9 |
| 20260505175547 | 28 | 254 | 4.8 | 20.9 | 0.00 | 0.00 | 0.00 | 66 | 1005.0 |
| 20260505175048 | 28 | 268 | 3.2 | 17.7 | 0.00 | 0.00 | 0.00 | 66 | 1004.9 |
| 20260505174552 | 28 | 324 | 3.2 | 17.7 | 0.00 | 0.00 | 0.00 | 66 | 1004.9 |
| 20260505174048 | 28 | 159 | 3.2 | 16.1 | 0.00 | 0.00 | 0.00 | 66 | 1004.8 |
| 20260505173548 | 28 | 234 | 4.8 | 19.3 | 0.00 | 0.00 | 0.00 | 66 | 1004.8 |
| 20260505173059 | 28 | 181 | 3.2 | 19.3 | 0.00 | 0.00 | 0.00 | 67 | 1004.8 |
| 20260505172550 | 28 | 191 | 3.2 | 19.3 | 0.00 | 0.00 | 0.00 | 67 | 1005.0 |
| 20260505172047 | 28 | 238 | 1.6 | 19.3 | 0.00 | 0.00 | 0.00 | 67 | 1005.0 |
| 20260505171604 | 28 | 241 | 3.2 | 12.9 | 0.00 | 0.00 | 0.00 | 66 | 1005.0 |
| 20260505171044 | 28 | 255 | 3.2 | 17.7 | 0.00 | 0.00 | 0.00 | 68 | 1004.9 |
| 20260505170543 | 27 | 203 | 4.8 | 17.7 | 0.00 | 0.00 | 0.00 | 68 | 1005.0 |
| 20260505170058 | 27 | 259 | 3.2 | 17.7 | 0.00 | 0.00 | 0.00 | 69 | 1005.0 |
| 20260505165544 | 27 | 252 | 4.8 | 20.9 | 0.00 | 0.00 | 0.00 | 69 | 1005.0 |
| 20260505165044 | 27 | 289 | 3.2 | 24.1 | 0.00 | 0.00 | 0.00 | 70 | 1005.0 |
| 20260505164552 | 26 | 207 | 9.7 | 24.1 | 0.00 | 0.00 | 0.00 | 70 | 1004.9 |
| 20260505164044 | 26 | 222 | 6.4 | 24.1 | 0.00 | 0.00 | 0.00 | 71 | 1005.0 |
| 20260505163547 | 26 | 261 | 6.4 | 22.5 | 0.00 | 0.00 | 0.00 | 70 | 1004.9 |
| 20260505163102 | 26 | 261 | 6.4 | 22.5 | 0.00 | 0.00 | 0.00 | 71 | 1004.8 |
| 20260505162544 | 26 | 248 | 4.8 | 27.4 | 0.00 | 0.00 | 0.00 | 71 | 1004.9 |
| 20260505162044 | 26 | 246 | 6.4 | 27.4 | 0.00 | 0.00 | 0.00 | 71 | 1004.9 |
| 20260505161629 | 26 | 232 | 4.8 | 17.7 | 0.00 | 0.00 | 0.00 | 71 | 1004.8 |
| 20260505161047 | 26 | 304 | 8.0 | 22.5 | 0.00 | 0.00 | 0.00 | 71 | 1004.9 |
| 20260505160544 | 26 | 268 | 6.4 | 22.5 | 0.00 | 0.00 | 0.00 | 72 | 1004.9 |
| 20260505153059 | 25 | 337 | 4.8 | 19.3 | 0.00 | 0.00 | 0.00 | 76 | 1004.4 |
| 20260505152548 | 25 | 315 | 4.8 | 16.1 | 0.00 | 0.00 | 0.00 | 76 | 1004.3 |
| 20260505152043 | 25 | 281 | 4.8 | 16.1 | 0.00 | 0.00 | 0.00 | 76 | 1004.5 |
| 20260505151618 | 25 | 248 | 3.2 | 17.7 | 0.00 | 0.00 | 0.00 | 76 | 1004.4 |
| 20260505151044 | 25 | 227 | 6.4 | 17.7 | 0.00 | 0.00 | 0.00 | 76 | 1004.4 |
| 20260505150548 | 25 | 235 | 3.2 | 16.1 | 0.00 | 0.00 | 0.00 | 77 | 1004.4 |
| 20260505140546 | 22 | 225 | 4.8 | 22.5 | 0.00 | 0.00 | 0.00 | 82 | 1004.1 |
| 20260505124551 | 21 | 229 | 3.2 | 20.9 | 0.00 | 0.00 | 0.00 | 86 | 1003.8 |
| 20260505124047 | 21 | 269 | 4.8 | 17.7 | 0.00 | 0.00 | 0.00 | 87 | 1003.8 |
| 20260505123549 | 21 | 162 | 3.2 | 14.5 | 0.00 | 0.00 | 0.00 | 87 | 1003.8 |
| 20260505123054 | 21 | 121 | 3.2 | 19.3 | 0.00 | 0.00 | 0.00 | 87 | 1003.9 |
| 20260505122546 | 21 | 0 | 4.8 | 19.3 | 0.00 | 0.00 | 0.00 | 87 | 1003.7 |
| 20260505122047 | 21 | 179 | 3.2 | 14.5 | 0.00 | 0.00 | 0.00 | 87 | 1003.7 |
| 20260505121556 | 21 | 225 | 4.8 | 16.1 | 0.00 | 0.00 | 0.00 | 87 | 1003.4 |
| 20260505121048 | 21 | 265 | 3.2 | 16.1 | 0.00 | 0.00 | 0.00 | 87 | 1003.4 |
| 20260505120544 | 21 | 255 | 3.2 | 16.1 | 0.00 | 0.00 | 0.00 | 87 | 1003.3 |
| 20260505120108 | 21 | 149 | 3.2 | 22.5 | 0.00 | 0.00 | 0.00 | 87 | 1003.4 |
| 20260505115546 | 21 | 237 | 4.8 | 22.5 | 0.00 | 0.00 | 0.00 | 87 | 1003.4 |
| 20260505115046 | 21 | 252 | 4.8 | 24.1 | 0.00 | 0.00 | 0.00 | 87 | 1003.3 |
| 20260505114550 | 21 | 183 | 1.6 | 24.1 | 0.00 | 0.00 | 0.00 | 87 | 1003.3 |
| 20260505114047 | 21 | 267 | 6.4 | 24.1 | 0.00 | 0.00 | 0.00 | 87 | 1003.3 |
| 20260505113546 | 21 | 255 | 3.2 | 24.1 | 0.00 | 0.00 | 0.00 | 87 | 1003.2 |
| 20260505113048 | 21 | 206 | 3.2 | 24.1 | 0.00 | 0.00 | 0.00 | 87 | 1003.1 |
| 20260505112547 | 21 | 288 | 6.4 | 24.1 | 0.00 | 0.00 | 0.00 | 87 | 1003.1 |
| 20260505112043 | 21 | 215 | 4.8 | 16.1 | 0.00 | 0.00 | 0.00 | 87 | 1003.2 |
| 20260505111552 | 21 | 236 | 1.6 | 14.5 | 0.00 | 0.00 | 0.00 | 86 | 1003.1 |
| 20260505111048 | 21 | 188 | 3.2 | 16.1 | 0.00 | 0.00 | 0.00 | 87 | 1003.2 |
| 20260505110548 | 21 | 281 | 3.2 | 19.3 | 0.00 | 0.00 | 0.00 | 87 | 1003.2 |
| 20260505102047 | 21 | 237 | 4.8 | 19.3 | 0.00 | 0.00 | 0.00 | 86 | 1003.1 |
| 20260505101555 | 21 | 217 | 4.8 | 22.5 | 0.00 | 0.00 | 0.00 | 86 | 1003.2 |
| 20260505101044 | 21 | 277 | 6.4 | 22.5 | 0.00 | 0.00 | 0.00 | 85 | 1003.1 |
| 20260505100544 | 21 | 243 | 3.2 | 19.3 | 0.00 | 0.00 | 0.00 | 85 | 1003.2 |
| 20260505100054 | 21 | 142 | 4.8 | 22.5 | 0.00 | 0.00 | 0.00 | 85 | 1003.3 |
| 20260505095543 | 21 | 202 | 4.8 | 24.1 | 0.00 | 0.00 | 0.00 | 85 | 1003.2 |
| 20260505095046 | 21 | 263 | 6.4 | 24.1 | 0.00 | 0.00 | 0.00 | 85 | 1003.2 |
| 20260505094550 | 21 | 227 | 3.2 | 20.9 | 0.00 | 0.00 | 0.00 | 85 | 1003.2 |
| 20260505094051 | 21 | 176 | 4.8 | 22.5 | 0.00 | 0.00 | 0.00 | 84 | 1003.2 |
| 20260505093544 | 21 | 169 | 4.8 | 22.5 | 0.00 | 0.00 | 0.00 | 84 | 1003.1 |
| 20260505093057 | 21 | 145 | 3.2 | 16.1 | 0.00 | 0.00 | 0.00 | 84 | 1003.3 |
| 20260505092546 | 21 | 206 | 4.8 | 16.1 | 0.00 | 0.00 | 0.00 | 84 | 1003.3 |
| 20260505092047 | 21 | 200 | 3.2 | 17.7 | 0.00 | 0.00 | 0.00 | 84 | 1003.3 |
| 20260505091550 | 21 | 159 | 3.2 | 17.7 | 0.00 | 0.00 | 0.00 | 84 | 1003.4 |
| 20260505091042 | 21 | 199 | 4.8 | 24.1 | 0.00 | 0.00 | 0.00 | 83 | 1003.5 |
| 20260505090543 | 21 | 271 | 4.8 | 24.1 | 0.00 | 0.00 | 0.00 | 83 | 1003.6 |
| 20260505090052 | 21 | 169 | 4.8 | 24.1 | 0.00 | 0.00 | 0.00 | 83 | 1003.6 |
| 20260505085543 | 21 | 152 | 4.8 | 22.5 | 0.00 | 0.00 | 0.00 | 83 | 1003.7 |
| 20260505085043 | 21 | 250 | 4.8 | 24.1 | 0.00 | 0.00 | 0.00 | 83 | 1003.7 |
| 20260505084547 | 21 | 173 | 3.2 | 24.1 | 0.00 | 0.00 | 0.00 | 82 | 1003.6 |
| 20260505084043 | 22 | 217 | 6.4 | 24.1 | 0.00 | 0.00 | 0.00 | 82 | 1003.5 |
| 20260505083546 | 22 | 205 | 4.8 | 27.4 | 0.00 | 0.00 | 0.00 | 82 | 1003.7 |
| 20260505083051 | 22 | 147 | 6.4 | 27.4 | 0.00 | 0.00 | 0.00 | 82 | 1003.7 |
| 20260505082548 | 22 | 214 | 3.2 | 24.1 | 0.00 | 0.00 | 0.00 | 82 | 1003.6 |
| 20260505082048 | 22 | 186 | 6.4 | 27.4 | 0.00 | 0.00 | 0.00 | 82 | 1003.5 |
| 20260505081552 | 22 | 250 | 8.0 | 27.4 | 0.00 | 0.00 | 0.00 | 81 | 1003.4 |
| 20260505081046 | 22 | 252 | 6.4 | 29.0 | 0.00 | 0.00 | 0.00 | 81 | 1003.6 |
| 20260505080547 | 22 | 271 | 4.8 | 29.0 | 0.00 | 0.00 | 0.00 | 81 | 1003.7 |
| 20260505080055 | 22 | 178 | 6.4 | 22.5 | 0.00 | 0.00 | 0.00 | 81 | 1003.6 |
| 20260505075547 | 22 | 185 | 8.0 | 22.5 | 0.00 | 0.00 | 0.00 | 80 | 1003.7 |
| 20260505075043 | 22 | 164 | 6.4 | 22.5 | 0.00 | 0.00 | 0.00 | 80 | 1003.6 |
| 20260505074557 | 22 | 214 | 8.0 | 22.5 | 0.00 | 0.00 | 0.00 | 79 | 1003.8 |
| 20260505074043 | 22 | 178 | 6.4 | 19.3 | 0.00 | 0.00 | 0.00 | 79 | 1003.9 |
| 20260505073543 | 22 | 171 | 8.0 | 19.3 | 0.00 | 0.00 | 0.00 | 79 | 1004.0 |
| 20260505073104 | 22 | 166 | 8.0 | 19.3 | 0.00 | 0.00 | 0.00 | 79 | 1004.1 |
| 20260505072543 | 22 | 192 | 3.2 | 19.3 | 0.00 | 0.00 | 0.00 | 78 | 1004.3 |
| 20260505072046 | 22 | 236 | 6.4 | 20.9 | 0.00 | 0.00 | 0.00 | 78 | 1004.2 |
| 20260505071553 | 22 | 221 | 6.4 | 24.1 | 0.00 | 0.00 | 0.00 | 78 | 1004.3 |
| 20260505071047 | 22 | 143 | 6.4 | 24.1 | 0.00 | 0.00 | 0.00 | 78 | 1004.4 |
| 20260505070547 | 22 | 198 | 4.8 | 22.5 | 0.00 | 0.00 | 0.00 | 77 | 1004.5 |
| 20260505070049 | 22 | 167 | 4.8 | 17.7 | 0.00 | 0.00 | 0.00 | 77 | 1004.5 |
| 20260505065547 | 22 | 179 | 4.8 | 17.7 | 0.00 | 0.00 | 0.00 | 77 | 1004.8 |
| 20260505065047 | 22 | 167 | 6.4 | 22.5 | 0.00 | 0.00 | 0.00 | 76 | 1004.8 |
| 20260505064550 | 22 | 165 | 4.8 | 22.5 | 0.00 | 0.00 | 0.00 | 76 | 1005.0 |
| 20260505064046 | 22 | 271 | 8.0 | 24.1 | 0.00 | 0.00 | 0.00 | 76 | 1004.9 |
| 20260505063543 | 23 | 331 | 4.8 | 29.0 | 0.00 | 0.00 | 0.00 | 75 | 1004.9 |
| 20260505063050 | 23 | 186 | 8.0 | 29.0 | 0.00 | 0.00 | 0.00 | 75 | 1005.0 |
| 20260505062546 | 23 | 175 | 4.8 | 24.1 | 0.00 | 0.00 | 0.00 | 75 | 1005.0 |
| 20260505062043 | 23 | 217 | 1.6 | 17.7 | 0.00 | 0.00 | 0.00 | 74 | 1005.0 |
| 20260505061557 | 23 | 164 | 4.8 | 22.5 | 0.00 | 0.00 | 0.00 | 74 | 1005.1 |
| 20260505061042 | 23 | 126 | 8.0 | 27.4 | 0.00 | 0.00 | 0.00 | 74 | 1005.0 |
| 20260505060542 | 23 | 169 | 4.8 | 27.4 | 0.00 | 0.00 | 0.00 | 73 | 1005.1 |
| 20260505060059 | 23 | 253 | 6.4 | 19.3 | 0.00 | 0.00 | 0.00 | 73 | 1005.0 |
| 20260505055542 | 23 | 182 | 4.8 | 17.7 | 0.00 | 0.00 | 0.00 | 73 | 1005.1 |
| 20260505055047 | 23 | 217 | 8.0 | 24.1 | 0.00 | 0.00 | 0.00 | 72 | 1005.1 |
| 20260505054609 | 23 | 225 | 6.4 | 24.1 | 0.00 | 0.00 | 0.00 | 72 | 1005.0 |
| 20260505054048 | 23 | 188 | 6.4 | 22.5 | 0.00 | 0.00 | 0.00 | 72 | 1005.0 |
| 20260505053543 | 23 | 250 | 4.8 | 27.4 | 0.00 | 0.00 | 0.00 | 72 | 1004.9 |
| 20260505053101 | 23 | 239 | 8.0 | 27.4 | 0.00 | 0.00 | 0.00 | 72 | 1004.9 |
| 20260505052547 | 23 | 219 | 8.0 | 25.7 | 0.00 | 0.00 | 0.00 | 72 | 1005.0 |
| 20260505052045 | 23 | 170 | 6.4 | 22.5 | 0.00 | 0.00 | 0.00 | 72 | 1005.1 |
| 20260505051549 | 23 | 190 | 6.4 | 20.9 | 0.00 | 0.00 | 0.00 | 72 | 1005.0 |
| 20260505051044 | 23 | 153 | 4.8 | 20.9 | 0.00 | 0.00 | 0.00 | 72 | 1005.0 |
| 20260505050543 | 23 | 61 | 4.8 | 19.3 | 0.00 | 0.00 | 0.00 | 72 | 1005.2 |
| 20260505050105 | 23 | 224 | 4.8 | 19.3 | 0.00 | 0.00 | 0.00 | 72 | 1005.3 |
| 20260505041602 | 23 | 174 | 6.4 | 22.5 | 0.00 | 0.00 | 0.00 | 71 | 1005.3 |
| 20260505041047 | 23 | 144 | 8.0 | 22.5 | 0.00 | 0.00 | 0.00 | 71 | 1005.3 |
| 20260505040547 | 23 | 155 | 6.4 | 19.3 | 0.00 | 0.00 | 0.00 | 71 | 1005.5 |
| 20260505040059 | 23 | 165 | 6.4 | 20.9 | 0.00 | 0.00 | 0.00 | 71 | 1005.6 |
| 20260505035546 | 23 | 153 | 6.4 | 24.1 | 0.00 | 0.00 | 0.00 | 71 | 1005.5 |
| 20260505035044 | 23 | 232 | 8.0 | 24.1 | 0.00 | 0.00 | 0.00 | 71 | 1005.6 |
| 20260505034549 | 23 | 163 | 8.0 | 24.1 | 0.00 | 0.00 | 0.00 | 71 | 1005.5 |
| 20260505034044 | 23 | 0 | 9.7 | 22.5 | 0.00 | 0.00 | 0.00 | 71 | 1005.4 |
| 20260505033544 | 23 | 138 | 6.4 | 19.3 | 0.00 | 0.00 | 0.00 | 71 | 1005.4 |
| 20260505033054 | 23 | 180 | 4.8 | 24.1 | 0.00 | 0.00 | 0.00 | 70 | 1005.4 |
| 20260505032543 | 23 | 223 | 8.0 | 24.1 | 0.00 | 0.00 | 0.00 | 70 | 1005.5 |
| 20260505032042 | 23 | 156 | 8.0 | 25.7 | 0.00 | 0.00 | 0.00 | 70 | 1005.3 |
| 20260505031605 | 23 | 209 | 9.7 | 25.7 | 0.00 | 0.00 | 0.00 | 70 | 1005.3 |
| 20260505031046 | 23 | 191 | 8.0 | 22.5 | 0.00 | 0.00 | 0.00 | 70 | 1005.6 |
| 20260505030542 | 23 | 186 | 6.4 | 22.5 | 0.00 | 0.00 | 0.00 | 70 | 1005.5 |
| 20260505030057 | 23 | 177 | 4.8 | 19.3 | 0.00 | 0.00 | 0.00 | 70 | 1005.5 |
| 20260505025542 | 23 | 282 | 8.0 | 19.3 | 0.00 | 0.00 | 0.00 | 70 | 1005.6 |
| 20260505025046 | 23 | 199 | 4.8 | 17.7 | 0.00 | 0.00 | 0.00 | 70 | 1005.7 |
| 20260505024600 | 24 | 170 | 6.4 | 17.7 | 0.00 | 0.00 | 0.00 | 70 | 1005.7 |
| 20260505024046 | 24 | 109 | 6.4 | 17.7 | 0.00 | 0.00 | 0.00 | 69 | 1005.5 |
| 20260505023550 | 24 | 155 | 4.8 | 17.7 | 0.00 | 0.00 | 0.00 | 69 | 1005.5 |
| 20260505023119 | 24 | 197 | 6.4 | 17.7 | 0.00 | 0.00 | 0.00 | 69 | 1005.5 |
| 20260505022543 | 24 | 181 | 4.8 | 17.7 | 0.00 | 0.00 | 0.00 | 69 | 1005.7 |
| 20260505022043 | 24 | 166 | 3.2 | 19.3 | 0.00 | 0.00 | 0.00 | 69 | 1005.7 |
| 20260505021553 | 24 | 44 | 8.0 | 19.3 | 0.00 | 0.00 | 0.00 | 68 | 1005.3 |
| 20260505021044 | 24 | 146 | 4.8 | 20.9 | 0.00 | 0.00 | 0.00 | 68 | 1005.3 |
| 20260505020542 | 24 | 204 | 4.8 | 22.5 | 0.00 | 0.00 | 0.00 | 68 | 1005.4 |
| 20260505020048 | 24 | 176 | 4.8 | 22.5 | 0.00 | 0.00 | 0.00 | 68 | 1005.4 |
| 20260505015543 | 24 | 167 | 6.4 | 25.7 | 0.00 | 0.00 | 0.00 | 68 | 1005.5 |
| 20260505015043 | 24 | 166 | 6.4 | 25.7 | 0.00 | 0.00 | 0.00 | 68 | 1005.4 |
| 20260505014548 | 24 | 143 | 8.0 | 24.1 | 0.00 | 0.00 | 0.00 | 67 | 1005.4 |
| 20260505014042 | 24 | 271 | 6.4 | 19.3 | 0.00 | 0.00 | 0.00 | 67 | 1005.5 |
| 20260505013542 | 24 | 186 | 6.4 | 25.7 | 0.00 | 0.00 | 0.00 | 67 | 1005.4 |
| 20260505013105 | 24 | 236 | 6.4 | 25.7 | 0.00 | 0.00 | 0.00 | 67 | 1005.6 |
| 20260505012547 | 24 | 202 | 4.8 | 20.9 | 0.00 | 0.00 | 0.00 | 67 | 1005.6 |
| 20260505012047 | 25 | 142 | 4.8 | 20.9 | 0.00 | 0.00 | 0.00 | 67 | 1005.5 |
| 20260505011551 | 25 | 167 | 6.4 | 24.1 | 0.00 | 0.00 | 0.00 | 66 | 1005.4 |
| 20260505011048 | 25 | 234 | 6.4 | 24.1 | 0.00 | 0.00 | 0.00 | 66 | 1005.7 |
| 20260505010546 | 25 | 196 | 8.0 | 22.5 | 0.00 | 0.00 | 0.00 | 66 | 1005.6 |
| 20260505010050 | 25 | 169 | 9.7 | 22.5 | 0.00 | 0.00 | 0.00 | 66 | 1005.7 |
| 20260505005546 | 25 | 178 | 4.8 | 20.9 | 0.00 | 0.00 | 0.00 | 66 | 1005.7 |
| 20260505005044 | 25 | 205 | 8.0 | 25.7 | 0.00 | 0.00 | 0.00 | 66 | 1005.6 |